Simultaneous Nadir Overpasses (SNOs) Predictions

Prediction of SNOs between GOES-15 and TERRA Satellite Orbit:

Table of predicted SNOs for the next 14.0 days since TLE Epoch: 3/17/2012
Index Date Time (GOES-15) GOES-15 Lat,Lon TERRA Lat,Lon Distance(km) Time Diff (sec)
1 03/18/2012 19:27:32 -0.06,-135.27 -0.30,-134.17 124.94 80
2 03/19/2012 07:46:16 0.07,-135.22 -0.79,-139.36 470.21 80
3 03/20/2012 19:15:19 -0.06,-135.23 -0.92,-131.20 457.57 80
4 03/21/2012 07:34:03 0.06,-135.18 -0.17,-136.39 137.63 80
5 03/23/2012 07:24:30 0.07,-135.14 0.45,-133.43 194.62 80
6 03/23/2012 19:43:05 -0.07,-135.16 0.65,-138.58 389.01 80
7 03/25/2012 19:30:51 -0.07,-135.11 0.06,-135.61 57.64 80
8 03/27/2012 19:21:18 -0.08,-135.05 -0.59,-132.65 273.23 80
9 03/28/2012 07:40:01
